RH
17 17 18 18 20 21 20 20 20 23 24 22 23 23 24 26 27 27 24 23 22 18 16 17 17 17 26 37 39 38 40 41 42 44 47 52 54 58 64 62 58 55 51 50 52 52 56 61 64 68 68 62 55 54 57 56 54 53 51 48 45 45 44 44 45 41 37 34 33 34 35 36 35 32 31 29 25 24 23 25 27 28 29 32 33 35
18 18 19 20 21 22 24 24 22 24 25 23 24 25 26 30 29 26 23 24 23 19 17 20 21 24 32 40 41 41 43 45 46 48 50 54 58 61 64 62 57 53 51 51 52 52 54 57 60 65 69 66 57 53 55 53 51 50 48 46 47 46 44 42 41 38 35 34 33 34 36 38 37 34 31 29 26 22 20 22 26 28 29 29 31 33
20 19 20 22 24 24 26 27 25 26 27 28 28 27 27 30 28 26 26 28 28 23 21 23 25 29 35 39 41 44 48 50 52 54 56 58 61 60 60 58 53 53 52 51 52 51 51 52 52 56 63 65 59 54 53 51 49 49 47 47 48 47 44 40 37 35 35 33 32 36 39 39 39 36 33 30 27 23 20 19 21 24 28 30 30 31
20 20 22 24 26 25 25 29 30 28 30 32 31 27 28 29 27 26 29 32 33 31 28 27 28 30 33 35 38 41 45 50 53 55 57 58 58 59 60 59 55 54 53 50 50 50 50 51 49 49 54 57 57 55 55 53 50 48 47 47 48 48 44 38 34 34 33 34 35 38 40 41 39 37 35 32 29 25 22 20 17 19 26 32 31 31
21 22 26 28 29 26 26 30 31 28 30 35 33 28 28 30 27 28 33 37 38 36 32 31 32 32 33 37 40 38 39 46 52 54 56 57 59 61 63 62 58 56 53 50 49 50 54 54 49 48 50 50 51 52 55 57 53 49 49 49 49 49 44 38 36 37 36 35 36 38 39 40 38 36 35 33 30 27 24 21 18 15 19 27 30 31
23 24 27 29 30 29 27 29 31 28 29 32 32 29 29 30 29 30 35 38 39 36 32 33 33 34 36 37 37 36 36 45 52 54 56 59 62 63 62 62 59 57 54 52 49 51 54 54 49 47 47 47 46 48 52 55 54 50 49 50 51 50 45 39 37 38 38 37 36 39 41 41 37 35 37 35 31 28 24 20 17 14 13 16 20 25
27 27 28 30 32 32 29 30 32 31 28 29 30 31 31 32 30 32 34 35 36 36 36 36 34 36 38 35 35 35 36 44 51 54 56 59 61 63 62 61 59 58 56 53 50 51 53 53 50 46 45 46 46 47 49 51 52 51 50 51 52 49 44 41 39 39 40 39 39 41 44 43 40 40 42 39 35 31 27 20 16 15 14 12 16 20
28 28 30 32 34 34 29 30 34 31 28 28 31 31 32 31 31 35 37 36 37 36 39 41 37 37 38 36 38 39 39 43 49 53 57 58 60 61 62 60 58 58 57 54 51 51 51 52 51 49 47 48 47 48 50 51 52 50 48 49 50 46 40 37 37 39 41 43 44 45 44 44 44 45 45 44 44 42 36 26 19 16 16 14 15 19
30 27 29 30 31 32 30 32 33 29 26 28 31 31 31 31 35 41 40 39 42 37 37 45 42 37 42 44 43 42 41 45 49 52 56 58 58 60 61 60 58 57 57 55 52 51 50 51 53 53 51 51 50 50 51 52 52 47 44 43 44 40 35 34 34 36 42 47 48 48 48 49 51 50 49 49 50 49 43 33 24 20 21 20 17 18
29 26 28 29 28 29 30 32 32 28 27 29 31 30 31 34 40 45 44 41 44 40 38 45 43 38 45 49 42 38 40 44 48 50 53 55 55 58 61 60 58 57 57 55 53 51 51 53 56 55 54 53 53 53 53 53 51 48 43 41 40 37 33 35 36 37 43 47 49 47 47 50 54 55 54 50 47 48 45 39 31 27 28 28 24 21
29 27 27 28 26 28 29 29 31 29 28 29 31 29 28 33 38 44 49 45 43 44 43 46 46 39 43 50 46 39 39 42 45 45 48 51 53 55 59 60 59 57 57 57 55 54 53 55 57 57 57 57 57 56 55 54 52 49 46 44 42 37 34 35 37 39 43 45 47 45 43 46 50 51 51 45 42 46 48 43 36 31 31 31 30 26
30 27 27 27 25 27 27 28 29 29 29 30 32 30 27 32 36 38 45 45 45 51 50 48 49 41 41 48 48 46 45 45 45 43 45 48 50 52 54 57 59 58 58 58 58 57 56 56 58 59 60 61 59 58 57 55 53 51 50 48 44 39 37 36 36 39 43 46 49 50 50 52 53 52 52 49 47 50 52 48 42 36 32 31 30 26
30 28 29 27 26 26 27 29 29 28 32 32 32 33 32 35 37 38 45 49 50 52 50 51 50 42 43 47 46 49 50 49 49 48 47 44 43 47 53 57 60 60 59 59 59 59 58 58 59 59 65 66 63 60 59 57 55 54 53 50 44 39 38 38 38 38 40 43 47 50 54 58 59 61 62 59 57 57 58 53 46 39 33 32 29 24
31 31 30 27 27 27 28 31 31 31 34 31 31 33 35 40 41 42 49 52 50 49 49 52 49 44 46 45 44 49 51 52 54 53 51 44 40 45 52 56 59 60 60 59 60 58 58 60 59 61 69 72 65 61 60 59 57 57 56 52 45 40 39 38 39 39 40 43 46 50 56 62 65 65 64 66 66 65 64 57 49 41 34 31 29 24
36 35 33 29 29 28 29 31 33 35 35 32 33 31 33 40 41 41 45 46 45 47 48 47 44 45 47 44 45 48 50 53 55 53 52 46 40 44 49 53 57 59 59 58 58 58 59 60 61 65 73 75 69 64 62 61 58 56 56 54 49 46 45 45 46 48 53 57 61 63 65 68 70 64 61 69 74 71 67 58 48 40 35 33 30 25
37 36 36 33 30 29 30 32 32 34 34 34 33 30 32 36 38 40 40 41 44 43 44 44 42 46 48 44 46 49 50 52 52 51 50 45 41 42 46 49 53 55 56 57 58 58 60 62 64 68 75 76 72 65 61 59 56 53 55 56 54 52 53 57 61 63 65 67 67 66 66 70 74 69 67 72 75 73 67 55 46 41 36 34 33 28
39 38 38 35 32 31 32 33 32 31 35 36 32 31 34 35 38 41 41 42 44 40 42 42 39 45 47 44 46 50 52 52 51 51 49 45 41 43 46 48 50 53 55 61 66 64 63 66 69 71 73 73 70 63 60 58 56 54 55 57 58 61 61 63 65 65 65 65 64 61 61 66 69 66 67 70 70 68 61 48 44 44 40 37 35 32
45 43 40 36 34 35 35 34 33 33 35 36 34 33 34 33 36 41 45 48 45 41 44 40 37 43 46 45 45 47 51 52 52 52 50 49 47 47 51 49 48 49 49 60 73 73 68 69 70 70 68 67 66 63 61 59 57 55 54 53 59 67 68 66 65 65 64 62 59 56 55 59 63 62 62 65 65 65 57 48 47 48 46 42 38 36
47 44 43 40 37 39 40 37 35 35 34 34 33 33 34 36 37 37 42 47 45 45 48 41 41 45 44 47 44 41 46 51 51 53 53 54 53 53 55 51 50 53 53 60 70 73 70 68 67 67 66 67 67 62 57 55 54 52 50 48 50 56 59 59 61 62 60 57 54 53 55 58 60 60 59 59 62 63 57 54 54 53 51 47 42 40
50 46 45 43 39 40 42 41 41 40 36 33 33 34 37 41 42 39 41 43 44 51 53 45 44 45 44 49 45 40 47 51 52 54 54 56 58 57 55 52 56 63 62 63 66 64 64 64 64 66 67 68 66 58 53 51 50 48 46 45 45 47 49 50 51 51 51 52 50 50 55 55 53 53 53 54 58 58 54 54 55 53 52 50 46 45
52 45 46 49 45 43 43 43 42 42 39 36 36 38 39 40 40 40 43 43 44 54 58 50 47 46 47 51 48 44 49 52 55 57 56 58 61 63 60 57 62 68 65 65 66 62 60 62 65 67 65 62 58 54 50 48 47 45 44 44 44 45 47 46 46 46 47 47 47 47 50 49 47 50 51 53 57 57 55 55 53 51 54 54 52 50
52 48 52 55 51 47 45 42 41 42 41 40 39 41 43 42 41 42 45 46 45 49 53 51 50 49 49 51 51 51 52 55 58 59 59 62 63 66 68 64 66 70 67 67 68 65 63 65 66 65 61 56 52 49 47 46 45 44 44 44 44 43 44 45 45 45 45 45 45 46 47 44 47 53 54 54 58 58 57 56 51 49 55 58 55 50
57 57 56 54 51 50 48 44 44 44 43 42 41 44 48 46 43 46 49 48 46 44 44 46 48 49 48 51 53 54 54 57 61 62 64 66 67 70 72 70 68 69 67 67 66 65 64 64 63 62 58 55 52 50 50 49 49 48 47 47 46 45 45 45 43 43 44 45 44 45 48 46 47 52 53 53 57 57 56 56 50 49 55 60 59 54
57 58 54 52 53 54 52 50 48 46 47 46 45 49 51 46 46 51 52 49 47 46 44 42 45 47 48 52 54 52 52 54 59 63 66 69 72 73 73 70 69 68 67 66 65 62 62 61 59 58 58 57 55 54 55 55 55 55 53 51 49 47 46 47 46 45 44 45 45 46 49 49 48 48 47 50 55 55 53 53 50 48 53 59 60 59
52 54 54 54 56 54 52 53 52 47 46 46 48 53 54 52 52 51 50 51 49 47 46 44 47 51 50 49 50 50 52 54 57 61 64 67 69 69 70 69 69 68 67 66 64 62 61 59 59 61 63 64 63 62 61 61 61 59 57 54 51 49 49 51 52 50 48 48 48 48 49 48 46 46 46 50 54 53 52 54 53 51 54 59 61 60
56 59 60 59 58 56 53 54 55 51 47 45 48 53 54 53 51 47 48 53 49 46 48 48 50 52 50 49 50 50 52 55 59 63 65 65 65 66 66 67 67 67 65 64 63 60 57 57 59 63 65 65 65 62 61 61 59 57 56 54 51 50 52 54 56 57 56 54 50 48 48 46 45 47 49 52 53 52 53 56 55 51 52 60 64 63
66 65 63 61 58 57 56 56 55 53 50 47 46 49 52 54 53 50 51 54 52 51 51 50 50 50 49 51 52 52 54 56 61 66 67 65 64 63 63 63 63 62 59 57 54 51 50 52 55 58 59 59 60 59 59 57 55 55 55 55 55 57 58 59 60 62 63 59 53 49 48 47 47 49 53 56 56 54 54 54 52 48 48 56 64 64
72 67 65 66 61 57 58 57 54 52 54 53 52 53 55 57 57 51 48 50 54 56 54 53 54 52 50 54 56 55 55 55 59 65 67 65 62 59 59 60 60 59 56 53 50 49 51 54 56 57 58 60 61 61 59 58 58 58 56 55 56 60 62 61 60 60 62 61 57 53 49 47 47 47 49 55 58 58 56 54 50 47 47 52 59 62
74 70 68 69 65 62 61 58 56 57 59 60 61 60 60 61 60 55 53 55 55 55 57 58 59 57 53 54 56 55 53 52 55 61 64 63 60 57 57 60 60 60 59 58 58 58 57 56 57 58 58 60 61 61 60 59 60 61 59 56 55 57 58 58 55 53 55 57 57 54 50 48 47 46 47 53 58 59 58 54 51 49 49 52 58 62
73 73 71 70 69 68 67 64 61 60 61 62 65 65 64 65 64 60 61 62 58 57 61 62 62 61 56 53 53 52 50 50 51 55 58 60 60 60 60 62 62 61 60 60 62 61 59 57 55 53 51 50 49 49 50 51 54 57 59 58 56 56 57 54 51 49 49 51 52 51 49 49 48 48 49 53 57 60 59 55 53 51 50 52 59 65
70 72 72 72 72 72 70 69 69 68 68 68 69 69 67 65 65 64 62 62 61 60 62 63 65 64 58 55 54 51 48 48 50 53 58 63 65 66 66 67 66 64 61 59 58 57 57 55 52 48 45 42 40 40 41 43 44 46 48 51 52 54 54 51 49 48 47 48 49 49 48 49 49 49 50 53 56 58 59 59 58 56 54 55 60 67
68 71 71 71 72 71 70 72 74 73 72 71 69 70 71 68 67 67 65 64 62 60 58 60 64 63 59 57 54 51 50 51 53 56 62 67 70 68 68 68 68 66 62 58 55 53 52 50 48 46 43 42 42 41 40 40 39 38 40 41 45 49 49 49 48 47 46 48 49 50 51 52 51 51 52 54 57 57 57 59 59 58 58 58 61 68
66 66 65 68 69 67 67 69 71 69 70 72 69 68 69 67 65 66 66 65 65 63 60 58 56 55 54 53 53 52 53 55 57 60 64 68 70 68 66 64 63 63 61 58 56 53 49 47 46 46 47 48 48 47 46 44 43 42 41 41 43 45 47 47 46 44 44 45 48 51 53 53 52 54 56 58 59 57 55 54 53 55 56 56 59 66
65 63 63 68 68 67 67 66 65 64 66 70 69 65 63 61 59 60 61 61 62 61 61 60 57 55 54 55 55 57 58 59 61 63 64 65 67 67 67 66 65 64 63 61 57 53 50 49 48 46 47 48 50 51 50 49 48 48 47 46 46 46 47 47 46 45 44 45 49 51 51 52 54 58 61 62 62 60 58 54 52 53 55 55 59 67
66 65 67 71 73 72 71 69 65 64 64 65 65 63 59 56 54 53 53 54 54 54 54 55 57 56 57 58 58 58 59 58 60 65 67 67 66 66 67 67 68 68 66 62 58 55 56 58 58 58 58 59 62 63 61 58 57 56 57 57 58 56 54 53 54 53 50 49 50 52 53 55 59 62 65 67 67 65 62 58 55 54 55 55 58 64
70 71 72 73 73 72 72 72 71 68 67 66 65 62 58 57 56 54 52 51 51 52 51 51 52 53 54 57 59 60 59 56 56 60 63 63 62 61 62 64 64 64 64 62 59 57 57 59 61 62 62 64 67 66 65 62 61 60 61 64 68 69 67 65 65 62 58 56 57 57 57 56 56 59 62 64 63 64 61 60 59 58 57 56 56 56
70 72 72 71 72 74 76 79 79 76 73 71 68 65 61 59 59 59 57 53 51 53 53 52 53 54 53 54 57 59 60 59 59 59 57 58 57 57 58 59 59 59 60 59 58 57 55 54 54 53 53 54 55 55 55 54 54 55 56 56 60 63 66 70 72 69 67 68 69 67 63 58 55 57 60 61 63 65 65 63 62 61 58 56 53 50
71 71 71 70 72 77 81 87 90 88 81 74 70 67 63 62 63 62 60 57 54 54 54 54 55 54 52 52 53 55 57 59 59 57 55 54 55 55 56 56 56 57 57 55 56 55 54 53 51 50 50 50 51 52 52 52 52 53 54 53 53 54 58 64 68 66 65 70 74 70 63 60 59 58 61 64 65 68 68 65 62 59 55 52 50 48
73 75 76 74 74 76 79 85 90 87 79 73 71 69 65 64 65 65 65 63 58 54 54 55 55 54 51 49 47 50 54 55 56 54 51 51 52 52 52 53 52 52 51 51 50 50 50 50 50 50 50 50 51 52 52 52 52 53 55 57 57 57 58 58 57 56 56 64 75 76 68 65 65 64 64 66 67 68 68 66 62 58 55 54 54 53
76 79 78 74 75 75 75 78 82 81 77 73 72 69 66 64 63 66 70 67 59 56 56 54 54 53 51 49 47 49 54 55 54 53 50 50 51 51 51 52 52 52 52 52 52 51 51 51 51 51 52 51 50 50 50 50 50 51 54 56 57 58 58 56 54 55 55 60 71 79 79 75 74 72 70 70 70 69 69 67 64 61 60 60 60 59
78 80 77 73 75 76 74 76 80 81 78 73 71 68 66 66 66 68 69 63 56 57 59 57 57 57 55 55 54 55 57 57 55 54 53 53 54 54 54 54 55 56 57 57 56 56 56 56 56 55 55 55 53 52 50 50 49 49 50 52 53 54 55 55 55 57 58 60 63 70 76 77 77 76 75 74 73 72 71 68 67 65 64 64 63 61
76 79 78 76 77 77 75 76 81 80 74 71 71 69 67 71 74 71 67 62 59 62 64 63 65 65 64 64 63 63 64 62 61 60 59 58 58 56 56 54 54 54 55 55 56 55 56 57 59 60 62 63 62 60 58 56 55 53 52 52 54 56 57 57 57 56 57 58 58 60 64 69 73 77 78 78 76 74 73 71 70 70 70 69 67 63
76 82 85 83 82 82 82 84 86 83 75 73 76 76 74 79 81 76 72 72 72 72 74 74 74 75 75 75 74 74 73 72 69 68 66 64 63 61 60 58 57 57 56 54 54 53 53 54 57 60 63 64 65 65 64 63 60 58 56 54 54 55 55 56 56 55 54 54 54 56 58 61 66 71 75 76 76 75 76 74 71 71 71 69 68 66
75 83 88 87 86 88 90 90 88 85 81 79 83 84 82 82 82 80 81 82 82 81 82 82 81 80 80 79 78 78 76 75 73 71 69 66 64 63 61 60 60 58 57 56 55 55 54 54 55 58 60 61 62 62 62 61 60 57 56 54 53 54 53 53 54 54 53 52 52 53 54 57 61 64 66 69 69 69 72 74 73 72 71 70 69 68
67 71 76 80 83 85 88 88 86 84 84 83 83 85 84 83 83 84 83 82 81 80 79 78 78 78 77 76 75 73 71 69 68 66 63 61 59 57 56 56 55 54 52 52 51 51 50 50 50 51 52 53 55 56 57 57 56 53 51 50 49 49 48 49 51 53 53 54 54 53 53 54 57 60 64 69 72 73 74 74 75 76 75 73 72 71
58 60 65 71 75 78 81 84 86 88 88 86 85 86 86 84 84 83 82 81 80 79 78 78 78 78 77 76 74 71 68 66 63 60 57 55 53 52 51 48 46 45 43 41 41 40 40 39 38 39 39 39 41 43 45 46 48 46 45 44 42 41 40 40 42 47 52 55 55 56 56 54 53 54 58 65 73 79 79 76 76 76 75 72 71 74
55 55 60 66 68 70 73 76 78 81 83 84 84 84 83 82 82 81 81 81 79 79 79 78 76 74 72 70 69 67 65 63 61 58 55 52 48 44 41 37 33 32 31 30 29 28 28 27 27 26 27 26 27 28 30 31 33 34 35 36 36 36 35 34 34 36 43 51 55 56 55 55 53 52 53 57 62 67 69 69 70 71 69 67 68 72
52 51 55 61 63 63 65 65 65 68 71 73 75 76 76 76 76 74 74 74 73 72 72 70 68 67 66 65 63 62 60 58 56 52 48 43 38 34 30 28 26 26 25 25 25 25 24 24 23 23 23 23 23 24 24 24 25 27 29 31 32 33 34 33 33 31 33 38 46 51 53 53 51 49 49 51 55 57 59 61 63 63 62 63 66 71
53 52 53 57 60 59 58 57 57 60 62 63 64 65 66 67 68 69 70 70 69 68 67 66 65 63 60 58 56 53 50 47 44 40 36 32 30 29 28 28 27 27 27 27 26 27 26 25 25 25 23 23 24 24 24 23 24 25 26 27 30 33 34 33 34 33 31 31 34 40 47 52 55 52 47 47 50 54 55 56 56 57 60 61 62 63
57 57 57 60 62 61 59 58 57 57 59 57 55 55 55 55 57 59 60 60 59 58 56 54 52 50 48 46 44 41 39 37 35 33 32 31 31 31 31 31 32 32 32 32 32 32 32 31 31 30 29 28 28 27 26 25 25 26 26 27 28 30 32 34 34 35 34 32 31 32 36 43 51 55 55 56 58 58 58 57 55 55 59 61 59 57
54 55 57 60 61 58 55 54 52 51 52 51 50 50 49 48 48 47 46 45 44 43 42 42 42 42 42 41 39 37 36 35 35 34 33 33 34 36 38 39 39 39 39 39 40 40 40 40 40 40 39 38 37 37 35 34 32 31 32 32 32 31 30 32 34 34 35 34 33 32 32 34 39 45 52 62 71 73 73 72 68 62 62 64 62 59